"Pseudo-MPEC" for P11btYU

Created 2021 Jan 15 4:07:23 UT using Find_Orb

Click here for an explanation of pseudo-MPECs

 
 Astrometry: 
     P11btYU  C2021 01 05,VPJKP4Yv9Pbp+X0Astrometryoko3wf+rowi1mredacted;6q$@F51
     P11btYU  C2021 01 05BOJ0bFIlbsxA*GfS4ds@6hqY,\LclickvS*=u4g_vh/iP(AK2h8?F51
     P11btYU  C2021 01 05#8wlHKg*Qc]\3pHrl6'5herefd0lPy*pV`.-forRexplanationiF51

Station data:
(F51) Pan-STARRS 1, Haleakala  (N20.707235 W156.255910)  US/Hawaii.
   Observers N. Primak, A. Schultz, S. Watters, J. Thiel, T. Goggia. Measurer
   PS1 Science Consortium. 1.8-m Ritchey-Chrétien + CCD.

Orbital elements:  P11btYU
   Perihelion 2020 Sep 28.088325 +/- 33.2719 TT =  2:07:11 (JD 2459120.588325)
Epoch 2021 Jan  5.0 TT = JDT 2459219.5   Earth MOID: 0.0032   AutoNEOCP
M 101.39491467 +/- 30.697053        (J2000 ecliptic)
n   1.02510562 +/- 0.533935         Peri.   74.98050 +/- 67.019970
a   0.97414507 +/- 0.338255         Node   279.19308 +/- 39.515038
e   0.0776774 +/- 0.251683          Incl.    3.96218 +/- 16.700483
P   0.96/351.18d           H 29.0   G  0.15   U 12.3  SR
q 0.89847601 +/- 0.305926    Q 1.04981413 +/- 32.1668
From 3 observations 2021 Jan. 5 (50.1 min); mean residual 0".08
Residuals in arcseconds: 
210105 F51  .02-  .05-    210105 F51  .07+  .15+    210105 F51  .05-  .10-    

Ephemerides (geocentric):
Date (UTC) HH   RA              Dec         delta   r     elong  mag " sig PA
---- -- -- --  -------------   -----------  ------ ------ -----  --- ---- ---
2021 01 15 04  05 15 01.352   -08 08 42.02  .03415 1.0070 132.5 23.4  35d   4
2021 01 15 05  05 15 06.259   -08 09 19.18  .03423 1.0071 132.5 23.4  35d   4
2021 01 15 06  05 15 11.153   -08 09 56.05  .03431 1.0071 132.4 23.4  35d   4
2021 01 15 07  05 15 16.034   -08 10 32.64  .03439 1.0072 132.4 23.4  35d   4
2021 01 15 08  05 15 20.902   -08 11 08.95  .03447 1.0072 132.4 23.5  36d   4
2021 01 15 09  05 15 25.757   -08 11 44.99  .03455 1.0073 132.4 23.5  36d   4
2021 01 15 10  05 15 30.600   -08 12 20.74  .03463 1.0073 132.4 23.5  36d   4
2021 01 15 11  05 15 35.430   -08 12 56.23  .03471 1.0074 132.3 23.5  36d   4
2021 01 15 12  05 15 40.247   -08 13 31.44  .03479 1.0074 132.3 23.5  36d   4
2021 01 15 13  05 15 45.052   -08 14 06.38  .03487 1.0075 132.3 23.5  36d   4
2021 01 15 14  05 15 49.845   -08 14 41.05  .03495 1.0075 132.3 23.5  36d   4
2021 01 15 15  05 15 54.626   -08 15 15.46  .03503 1.0076 132.2 23.5  36d   4
2021 01 15 16  05 15 59.395   -08 15 49.59  .03511 1.0076 132.2 23.5  36d   4
2021 01 15 17  05 16 04.152   -08 16 23.47  .03519 1.0077 132.2 23.5  36d   4
2021 01 15 18  05 16 08.897   -08 16 57.08  .03527 1.0077 132.2 23.5  36d   4
2021 01 15 19  05 16 13.630   -08 17 30.43  .03535 1.0078 132.2 23.5  36d   4
2021 01 15 20  05 16 18.351   -08 18 03.53  .03543 1.0078 132.1 23.5  36d   4
2021 01 15 21  05 16 23.061   -08 18 36.36  .03551 1.0079 132.1 23.5  36d   4
2021 01 15 22  05 16 27.760   -08 19 08.94  .03559 1.0079 132.1 23.5  36d   4
2021 01 15 23  05 16 32.447   -08 19 41.27  .03567 1.0080 132.1 23.5  37d   4
2021 01 16 00  05 16 37.123   -08 20 13.34  .03575 1.0080 132.1 23.5  37d   4
2021 01 16 01  05 16 41.788   -08 20 45.16  .03583 1.0080 132.0 23.5  37d   4
2021 01 16 02  05 16 46.441   -08 21 16.74  .03591 1.0081 132.0 23.6  37d   4
2021 01 16 03  05 16 51.084   -08 21 48.06  .03599 1.0081 132.0 23.6  37d   4
2021 01 16 04  05 16 55.716   -08 22 19.14  .03607 1.0082 132.0 23.6  37d   4
2021 01 16 05  05 17 00.337   -08 22 49.98  .03615 1.0082 132.0 23.6  37d   4
2021 01 16 06  05 17 04.947   -08 23 20.57  .03623 1.0083 131.9 23.6  37d   4
2021 01 16 07  05 17 09.547   -08 23 50.92  .03631 1.0083 131.9 23.6  37d   4
2021 01 16 08  05 17 14.136   -08 24 21.03  .03639 1.0084 131.9 23.6  37d   4
2021 01 16 09  05 17 18.715   -08 24 50.90  .03647 1.0084 131.9 23.6  37d   4
2021 01 16 10  05 17 23.283   -08 25 20.54  .03655 1.0085 131.9 23.6  37d   4
2021 01 16 11  05 17 27.841   -08 25 49.93  .03663 1.0085 131.8 23.6  37d   4
2021 01 16 12  05 17 32.389   -08 26 19.10  .03671 1.0086 131.8 23.6  37d   4
2021 01 16 13  05 17 36.927   -08 26 48.03  .03679 1.0086 131.8 23.6  37d   4
2021 01 16 14  05 17 41.454   -08 27 16.73  .03687 1.0087 131.8 23.6  37d   4
2021 01 16 15  05 17 45.972   -08 27 45.20  .03695 1.0087 131.8 23.6  38d   4
2021 01 16 16  05 17 50.480   -08 28 13.44  .03703 1.0088 131.7 23.6  38d   4
2021 01 16 17  05 17 54.978   -08 28 41.46  .03711 1.0088 131.7 23.6  38d   4
2021 01 16 18  05 17 59.467   -08 29 09.24  .03719 1.0089 131.7 23.6  38d   4
2021 01 16 19  05 18 03.945   -08 29 36.81  .03727 1.0089 131.7 23.6  38d   4
2021 01 16 20  05 18 08.415   -08 30 04.15  .03735 1.0090 131.6 23.6  38d   4
2021 01 16 21  05 18 12.874   -08 30 31.27  .03743 1.0090 131.6 23.7  38d   4
2021 01 16 22  05 18 17.325   -08 30 58.17  .03751 1.0091 131.6 23.7  38d   4
2021 01 16 23  05 18 21.766   -08 31 24.85  .03759 1.0091 131.6 23.7  38d   4
2021 01 17 00  05 18 26.198   -08 31 51.31  .03767 1.0092 131.6 23.7  38d   4
2021 01 17 01  05 18 30.620   -08 32 17.55  .03775 1.0092 131.5 23.7  38d   4
2021 01 17 02  05 18 35.034   -08 32 43.58  .03783 1.0092 131.5 23.7  38d   4
2021 01 17 03  05 18 39.438   -08 33 09.40  .03791 1.0093 131.5 23.7  38d   4